User: anonymous   Login
Location: Unspecified
(64.9000°N, 0.0000°E)
Time: 11:51:10
(UTC+00:00)
Language:

Explorer 11/Cluster Stage 4 - Orbit

View from above orbital plane
View from above orbital plane
View from above satellite
View from above satellite

Ground track
Ground track

The orbit data is extracted from the following two-line orbital elements,

1   107U 61013A   19170.13618836  .00000330  00000-0  25644-4 0  9994
2   107  28.7889  78.7285 0547219   6.8741 353.8987 14.08786232914359
Epoch (UTC): 19 June 2019 03:16:06
Eccentricity: 0.0547219
inclination: 28.7889°
perigee height: 467 km
apogee height: 1260 km
right ascension of ascending node: 78.7285°
argument of perigee: 6.8741°
revolutions per day: 14.08786232
mean anomaly at epoch: 353.8987°
orbit number at epoch: 91435

The dashed part of the orbit path shows where the satellite is in the earth's shadow,  

DLR